Location: Barcelona
(41.3830°N, 2.1830°E)
Time: 13:34:54
(UTC+02:00)

CAS-4A - Visible Passes

Search period start: 16 October 2019 00:00
Search period end: 26 October 2019 00:00
Orbit: 528 x 546 km, 43.0° (Epoch: 16 October)

Date Brightness Start Highest point End Pass type
(mag) Time Alt. Az. Time Alt. Az. Time Alt. Az.
19 Oct ? 20:03:31 10° SSE 20:04:19 10° SE 20:05:00 10° SE visible
19 Oct ? 21:39:52 10° SW 21:40:24 13° SW 21:40:24 13° SW visible
20 Oct ? 19:51:54 10° S 19:54:00 14° SE 19:55:41 11° ESE visible
20 Oct ? 21:29:33 10° SW 21:31:04 21° SW 21:31:04 21° SW visible
21 Oct ? 19:40:56 10° S 19:43:40 17° SE 19:46:16 11° ESE visible
21 Oct ? 21:19:16 10° WSW 21:21:38 32° SW 21:21:38 32° SW visible
22 Oct ? 19:30:12 10° SSW 19:33:21 22° SE 19:36:31 10° E visible
22 Oct ? 21:09:02 10° WSW 21:12:06 49° SW 21:12:06 49° SW visible
23 Oct ? 20:58:49 10° WSW 21:02:30 71° WSW 21:02:30 71° WSW visible
24 Oct ? 20:48:37 10° WSW 20:52:44 86° N 20:52:51 83° NE visible
25 Oct ? 20:38:27 10° W 20:42:32 79° N 20:43:08 63° ENE visible
